IZ0QWM-13 Scandriglia IT current weather conditions

sailwx.info

Wind from 270 at 0 knots gusting 0

Air temperature 15.0° C
Dewpoint 11.0° C

Last reported at 2016-Sep-28 22:46 UTC.
Time now 2016-Sep-28 23:50 UTC

Location: N 42°10' E 012°47'.
View on Google Maps.

See reports from other nearby stations

  
Tides and Currents Weather Stations Pressure Air Temp Water Temp Dewpoint Dewpoint Depression Visibility Wind Speed Wind Dir Waves Ship Positions
date/time (UTC)wind fromknots sea level pressurealtimeterstation pressurevisibilityair tempwater tempwave heightnotes
2016-Sep-28 22:46 270 0 gusting 0 15.0
2016-Sep-28 22:36 270 0 gusting 0 15.0
2016-Sep-28 22:26 090 0 gusting 0 15.0
2016-Sep-28 22:16 090 0 gusting 0 15.0
2016-Sep-28 22:07 090 0 gusting 0 15.0
2016-Sep-28 21:56 090 0 gusting 0 15.0
2016-Sep-28 21:46 090 0 gusting 0 15.0
2016-Sep-28 21:37 090 0 gusting 0 15.0
2016-Sep-28 21:26 090 0 gusting 0 16.1
2016-Sep-28 21:16 090 0 gusting 0 16.1
2016-Sep-28 21:06 16.1
2016-Sep-28 20:56 16.1
2016-Sep-28 20:46 090 0 gusting 0 16.1
2016-Sep-28 20:37 090 0 gusting 0 16.1
2016-Sep-28 20:26 090 0 gusting 0 16.1
2016-Sep-28 20:16 090 0 gusting 0 16.1
2016-Sep-28 20:06 090 0 gusting 0 17.2
2016-Sep-28 19:56 090 0 gusting 0 17.2
2016-Sep-28 19:46 050 0 gusting 0 17.2
2016-Sep-28 19:36 050 0 gusting 0 17.2
2016-Sep-28 19:26 17.8
2016-Sep-28 19:16 17.8
2016-Sep-28 19:06 270 0 gusting 0 18.9
2016-Sep-28 18:56 270 0 gusting 0 18.9
2016-Sep-28 18:46 18.9
2016-Sep-28 18:36 18.9
2016-Sep-28 18:26 320 0 gusting 0 20.0
2016-Sep-28 18:16 320 0 gusting 0 20.0
2016-Sep-28 18:06 20.0
2016-Sep-28 17:56 20.0
2016-Sep-28 17:46 060 0 gusting 0 21.1
2016-Sep-28 17:36 060 0 gusting 0 21.1
2016-Sep-28 17:26 090 0 gusting 0 21.1
2016-Sep-28 17:16 090 0 gusting 0 21.1
2016-Sep-28 17:06 090 0 gusting 0 22.2
2016-Sep-28 16:56 090 0 gusting 0 22.2
2016-Sep-28 16:46 340 0 gusting 0 22.8
2016-Sep-28 16:36 340 0 gusting 0 22.8
2016-Sep-28 16:26 270 0 gusting 0 22.8
2016-Sep-28 16:16 270 0 gusting 0 22.8
2016-Sep-28 16:06 270 0 gusting 0 22.8
2016-Sep-28 15:56 270 0 gusting 0 22.8
2016-Sep-28 15:46 270 0 gusting 0 22.8
2016-Sep-28 15:36 270 0 gusting 0 22.8
2016-Sep-28 15:26 270 0 gusting 0 25.0
2016-Sep-28 15:16 270 0 gusting 0 25.0
2016-Sep-28 15:06 270 0 gusting 0 26.1
2016-Sep-28 14:56 270 0 gusting 0 26.1
2016-Sep-28 14:46 270 0 gusting 0 26.1
2016-Sep-28 14:36 270 0 gusting 0 26.1
2016-Sep-28 14:26 330 0 gusting 0 26.1
2016-Sep-28 14:16 330 0 gusting 0 26.1
2016-Sep-28 14:06 270 0 gusting 0 26.1
2016-Sep-28 13:56 270 0 gusting 0 26.1
2016-Sep-28 13:46 320 0 gusting 0 26.1
2016-Sep-28 13:36 320 0 gusting 0 26.1
2016-Sep-28 13:26 090 0 gusting 0 25.0
2016-Sep-28 13:16 090 0 gusting 0 25.0
2016-Sep-28 13:06 270 0 gusting 0 25.0
2016-Sep-28 12:56 270 0 gusting 0 25.0
2016-Sep-28 12:46 080 0 gusting 0 25.0
2016-Sep-28 12:36 080 0 gusting 0 25.0
2016-Sep-28 12:26 080 0 gusting 0 25.0
2016-Sep-28 12:16 080 0 gusting 0 25.0
2016-Sep-28 12:06 270 0 gusting 0 25.0
2016-Sep-28 11:56 270 0 gusting 0 25.0
2016-Sep-28 11:46 050 0 gusting 0 25.0
2016-Sep-28 11:36 050 0 gusting 0 25.0
2016-Sep-28 11:26 090 0 gusting 0 25.0
2016-Sep-28 11:16 090 0 gusting 0 25.0
2016-Sep-28 11:06 140 0 gusting 0 23.9
2016-Sep-28 10:56 140 0 gusting 0 23.9
2016-Sep-28 10:46 090 0 gusting 0 22.8
2016-Sep-28 10:36 090 0 gusting 0 22.8
2016-Sep-28 10:26 320 0 gusting 0 22.8
2016-Sep-28 10:16 320 0 gusting 0 22.8
2016-Sep-28 10:06 320 0 gusting 0 22.8
2016-Sep-28 09:56 320 0 gusting 0 22.8
2016-Sep-28 09:46 320 0 gusting 0 22.8
2016-Sep-28 09:36 320 0 gusting 0 22.8
2016-Sep-28 09:26 300 0 gusting 0 21.1
2016-Sep-28 09:16 300 0 gusting 0 21.1
2016-Sep-28 09:06 17.8
2016-Sep-28 08:56 17.8
2016-Sep-28 08:46 090 0 gusting 0 16.1
2016-Sep-28 08:36 090 0 gusting 0 16.1
2016-Sep-28 08:26 090 0 gusting 0 16.1
2016-Sep-28 08:16 090 0 gusting 0 16.1
2016-Sep-28 08:06 090 0 gusting 0 16.1
2016-Sep-28 07:56 090 0 gusting 0 16.1
2016-Sep-28 07:46 090 0 gusting 0 15.0
2016-Sep-28 07:36 090 0 gusting 0 15.0
2016-Sep-28 07:26 090 0 gusting 0 12.8
2016-Sep-28 07:16 090 0 gusting 0 12.8
2016-Sep-28 07:06 090 0 gusting 0 12.8
2016-Sep-28 06:56 090 0 gusting 0 12.8
2016-Sep-28 06:46 090 0 gusting 0 12.8
2016-Sep-28 06:36 090 0 gusting 0 12.8
2016-Sep-28 06:26 090 0 gusting 0 12.2
2016-Sep-28 06:16 090 0 gusting 0 12.2
2016-Sep-28 06:06 090 0 gusting 0 12.2
2016-Sep-28 05:56 090 0 gusting 0 12.2
2016-Sep-28 05:46 090 0 gusting 0 12.2
2016-Sep-28 05:36 090 0 gusting 0 12.2
2016-Sep-28 05:26 090 0 gusting 0 12.2
2016-Sep-28 05:16 090 0 gusting 0 12.2
2016-Sep-28 05:06 090 0 gusting 0 12.2
2016-Sep-28 04:56 090 0 gusting 0 12.2
2016-Sep-28 04:46 090 0 gusting 0 12.8
2016-Sep-28 04:36 090 0 gusting 0 12.8
2016-Sep-28 04:26 090 0 gusting 0 12.8
2016-Sep-28 04:16 090 0 gusting 0 12.8
2016-Sep-28 04:06 090 0 gusting 0 12.8
2016-Sep-28 03:56 090 0 gusting 0 12.8
2016-Sep-28 03:46 090 0 gusting 0 12.8
2016-Sep-28 03:36 090 0 gusting 0 12.8
2016-Sep-28 03:26 090 0 gusting 0 12.8
2016-Sep-28 03:16 090 0 gusting 0 12.8
2016-Sep-28 03:06 090 0 gusting 0 12.8
2016-Sep-28 02:56 090 0 gusting 0 12.8
2016-Sep-28 02:46 090 0 gusting 0 12.8
2016-Sep-28 02:36 090 0 gusting 0 12.8
2016-Sep-28 02:26 090 0 gusting 0 13.9
2016-Sep-28 02:16 090 0 gusting 0 13.9
2016-Sep-28 02:06 090 0 gusting 0 13.9
2016-Sep-28 01:56 090 0 gusting 0 13.9
2016-Sep-28 01:46 090 0 gusting 0 13.9
2016-Sep-28 01:36 090 0 gusting 0 13.9
2016-Sep-28 01:26 090 0 gusting 0 13.9
2016-Sep-28 01:16 090 0 gusting 0 13.9
2016-Sep-28 01:06 090 0 gusting 0 13.9
2016-Sep-28 00:56 090 0 gusting 0 13.9
2016-Sep-28 00:46 090 0 gusting 0 13.9
2016-Sep-28 00:36 090 0 gusting 0 13.9
2016-Sep-28 00:26 090 0 gusting 0 13.9
2016-Sep-28 00:16 090 0 gusting 0 13.9
2016-Sep-28 00:06 090 0 gusting 0 15.0
2016-Sep-27 23:56 090 0 gusting 0 15.0
2016-Sep-27 23:46 090 0 gusting 0 15.0
2016-Sep-27 23:36 090 0 gusting 0 15.0
2016-Sep-27 23:26 090 0 gusting 0 15.0
2016-Sep-27 23:16 090 0 gusting 0 15.0
2016-Sep-27 23:06 090 0 gusting 0 16.1
2016-Sep-27 22:56 090 0 gusting 0 16.1
2016-Sep-27 22:46 16.1
2016-Sep-27 22:36 16.1
2016-Sep-27 22:26 16.1
2016-Sep-27 22:16 320 0 gusting 0 16.1
2016-Sep-27 22:06 320 0 gusting 0 16.1
2016-Sep-27 21:56 320 0 gusting 0 16.1
2016-Sep-27 21:46 17.8
2016-Sep-27 21:36 17.8
2016-Sep-27 21:26 17.8
2016-Sep-27 21:16 17.8
2016-Sep-27 21:06 17.8
2016-Sep-27 20:56 17.8
2016-Sep-27 20:46 18.9
2016-Sep-27 20:36 18.9
2016-Sep-27 20:26 18.9
2016-Sep-27 20:16 18.9
2016-Sep-27 20:06 270 0 gusting 0 18.9
2016-Sep-27 19:56 270 0 gusting 0 18.9
2016-Sep-27 19:46 270 0 gusting 0 18.9
2016-Sep-27 19:36 300 0 gusting 0 18.9
2016-Sep-27 19:26 300 0 gusting 0 18.9
2016-Sep-27 19:16 310 0 gusting 0 20.0
2016-Sep-27 19:06 310 0 gusting 0 20.0
2016-Sep-27 18:56 310 0 gusting 0 20.0
2016-Sep-27 18:46 310 0 gusting 0 20.0
2016-Sep-27 18:36 20.0
2016-Sep-27 18:26 20.0
2016-Sep-27 18:16 050 0 gusting 0 20.0
2016-Sep-27 18:06 050 0 gusting 0 20.0
2016-Sep-27 17:56 090 0 gusting 0 21.1
2016-Sep-27 17:46 090 0 gusting 0 21.1
2016-Sep-27 17:36 090 0 gusting 0 21.1
2016-Sep-27 17:26 090 0 gusting 0 21.1
2016-Sep-27 17:16 270 0 gusting 0 23.9
2016-Sep-27 17:06 270 0 gusting 0 23.9
2016-Sep-27 16:56 270 0 gusting 0 23.9
2016-Sep-27 16:46 270 0 gusting 0 23.9
2016-Sep-27 16:36 23.9
2016-Sep-27 16:26 23.9
2016-Sep-27 16:16 090 0 gusting 0 25.0
2016-Sep-27 16:06 090 0 gusting 0 25.0
2016-Sep-27 15:56 270 0 gusting 0 27.2
2016-Sep-27 15:46 270 0 gusting 0 27.2
2016-Sep-27 15:36 270 0 gusting 0 27.2
2016-Sep-27 15:26 270 0 gusting 0 27.2
2016-Sep-27 15:16 270 0 gusting 0 27.2
2016-Sep-27 15:06 270 0 gusting 0 27.2
2016-Sep-27 14:56 330 0 gusting 0 27.2
2016-Sep-27 14:46 330 0 gusting 0 27.2
2016-Sep-27 14:36 300 0 gusting 0 27.2
2016-Sep-27 14:26 300 0 gusting 0 27.2
2016-Sep-27 14:16 270 0 gusting 0 27.2
2016-Sep-27 14:06 270 0 gusting 0 27.2
2016-Sep-27 13:56 270 0 gusting 0 27.2
2016-Sep-27 13:46 270 0 gusting 0 27.2
2016-Sep-27 13:36 270 0 gusting 0 27.2
2016-Sep-27 13:26 270 0 gusting 0 27.2
2016-Sep-27 13:16 270 0 gusting 0 27.2
2016-Sep-27 13:06 270 0 gusting 0 27.2
2016-Sep-27 12:56 270 0 gusting 0 27.2
2016-Sep-27 12:46 270 0 gusting 0 27.2
2016-Sep-27 12:36 310 0 gusting 0 27.2
2016-Sep-27 12:26 310 0 gusting 0 27.2
2016-Sep-27 12:16 270 0 gusting 0 26.1
2016-Sep-27 12:06 270 0 gusting 0 26.1
2016-Sep-27 11:56 270 0 gusting 0 26.1
2016-Sep-27 11:46 270 0 gusting 0 26.1
2016-Sep-27 11:36 320 0 gusting 0 25.0
2016-Sep-27 11:26 320 0 gusting 0 25.0
2016-Sep-27 11:16 270 0 gusting 0 25.0
2016-Sep-27 11:06 270 0 gusting 0 25.0
2016-Sep-27 10:56 050 0 gusting 0 23.9
2016-Sep-27 10:46 050 0 gusting 0 23.9
2016-Sep-27 10:36 270 0 gusting 0 23.9
2016-Sep-27 10:26 270 0 gusting 0 23.9
2016-Sep-27 10:16 320 0 gusting 0 22.8
2016-Sep-27 10:06 320 0 gusting 0 22.8
2016-Sep-27 09:56 320 0 gusting 0 22.8
2016-Sep-27 09:46 320 0 gusting 0 22.8
2016-Sep-27 09:36 320 0 gusting 0 21.1
2016-Sep-27 09:26 320 0 gusting 0 21.1
2016-Sep-27 09:16 320 0 gusting 0 21.1
2016-Sep-27 09:06 320 0 gusting 0 21.1
2016-Sep-27 08:56 17.8
2016-Sep-27 08:46 17.8
2016-Sep-27 08:36 320 0 gusting 0 17.2
2016-Sep-27 08:26 320 0 gusting 0 17.2
2016-Sep-27 08:16 050 0 gusting 0 16.1
2016-Sep-27 08:06 050 0 gusting 0 16.1
2016-Sep-27 07:56 090 0 gusting 0 15.0
2016-Sep-27 07:46 090 0 gusting 0 15.0
2016-Sep-27 07:36 050 0 gusting 0 13.9
2016-Sep-27 07:26 050 0 gusting 0 13.9
2016-Sep-27 07:16 090 0 gusting 0 12.8
2016-Sep-27 07:06 090 0 gusting 0 12.8
2016-Sep-27 06:56 12.8
2016-Sep-27 06:46 12.8
2016-Sep-27 06:36 090 0 gusting 0 12.8
2016-Sep-27 06:26 090 0 gusting 0 12.8
2016-Sep-27 06:16 090 0 gusting 0 12.2
2016-Sep-27 06:06 090 0 gusting 0 12.2
2016-Sep-27 05:56 090 0 gusting 0 12.2
2016-Sep-27 05:46 090 0 gusting 0 12.2
2016-Sep-27 05:36 090 0 gusting 0 12.8
2016-Sep-27 05:26 090 0 gusting 0 12.8
2016-Sep-27 05:16 090 0 gusting 0 12.8
2016-Sep-27 05:06 090 0 gusting 0 12.8
2016-Sep-27 04:56 090 0 gusting 0 12.8
2016-Sep-27 04:46 090 0 gusting 0 12.8
2016-Sep-27 04:36 090 0 gusting 0 12.8
2016-Sep-27 04:26 090 0 gusting 0 12.8
2016-Sep-27 04:16 090 0 gusting 0 12.8
2016-Sep-27 04:06 090 0 gusting 0 12.8
2016-Sep-27 03:56 090 0 gusting 0 12.8
2016-Sep-27 03:46 090 0 gusting 0 12.8
2016-Sep-27 03:36 090 0 gusting 0 13.9
2016-Sep-27 03:26 090 0 gusting 0 13.9
2016-Sep-27 03:16 090 0 gusting 0 13.9
2016-Sep-27 03:06 090 0 gusting 0 13.9
2016-Sep-27 02:56 090 0 gusting 0 13.9
2016-Sep-27 02:46 090 0 gusting 0 13.9
2016-Sep-27 02:36 090 0 gusting 0 13.9
2016-Sep-27 02:26 090 0 gusting 0 13.9
2016-Sep-27 02:16 090 0 gusting 0 13.9
2016-Sep-27 02:06 090 0 gusting 0 13.9
2016-Sep-27 01:56 090 0 gusting 0 13.9
2016-Sep-27 01:46 090 0 gusting 0 13.9
2016-Sep-27 01:36 090 0 gusting 0 13.9
2016-Sep-27 01:26 090 0 gusting 0 13.9
2016-Sep-27 01:16 090 0 gusting 0 13.9
2016-Sep-27 01:12 090 0 gusting 0 13.9
2016-Sep-27 00:56 090 0 gusting 0 13.9
2016-Sep-27 00:46 090 0 gusting 0 13.9
2016-Sep-27 00:36 090 0 gusting 0 13.9
2016-Sep-27 00:26 090 0 gusting 0 13.9
2016-Sep-27 00:16 090 0 gusting 0 13.9
2016-Sep-27 00:06 090 0 gusting 0 13.9
2016-Sep-26 23:56 090 0 gusting 0 13.9
2016-Sep-26 23:45 090 0 gusting 0 13.9
2016-Sep-26 23:35 090 0 gusting 0 15.0
2016-Sep-26 23:25 090 0 gusting 0 15.0
2016-Sep-26 23:15 15.0
2016-Sep-26 23:05 15.0